This is the latest recevied weather packets stored in our database for station/object K0APR. If no packets are shown the sender has not sent any weather packets the latest 10 day(s).
| Time | Temp. | Humidity | Pressure | Rain* | Wind** | Luminosity | Snow |
|---|---|---|---|---|---|---|---|
| 1788193679 | 23.89° C | 74% | 1013.7 hPa | 0 mm | - | 584 W/m² | - |
| 1788193374 | 24.44° C | 72% | 1014 hPa | 0 mm | - | 407 W/m² | - |
| 1788193068 | 24.44° C | 72% | 1013.7 hPa | 0 mm | - | 557 W/m² | - |
| 1788192778 | 23.89° C | 72% | 1013.7 hPa | 0 mm | - | 560 W/m² | - |
| 1788192464 | 23.89° C | 75% | 1013.7 hPa | 0 mm | - | 629 W/m² | - |
| 1788192159 | 23.89° C | 74% | 1013.7 hPa | 0 mm | - | 533 W/m² | - |
| 1788191859 | 23.89° C | 74% | 1013.7 hPa | 0 mm | - | 488 W/m² | - |
| 1788191554 | 23.89° C | 75% | 1013.7 hPa | 0 mm | - | 541 W/m² | - |
| 1788191250 | 23.89° C | 76% | 1013.7 hPa | 0 mm | - | 499 W/m² | - |
| 1788190946 | 23.33° C | 76% | 1013.7 hPa | 0 mm | - | 576 W/m² | - |
| 1788190644 | 23.33° C | 76% | 1013.7 hPa | 0 mm | - | 488 W/m² | - |
| 1788190340 | 22.78° C | 78% | 1013.3 hPa | 0 mm | - | 548 W/m² | - |
| 1788190036 | 22.78° C | 78% | 1013.3 hPa | 0 mm | - | 497 W/m² | - |
| 1788189732 | 22.78° C | 79% | 1013.3 hPa | 0 mm | - | 469 W/m² | - |
| 1788189432 | 22.78° C | 79% | 1013.3 hPa | 0 mm | - | 409 W/m² | - |
| 1788189126 | 22.22° C | 80% | 1013 hPa | 0 mm | - | 393 W/m² | - |
| 1788188821 | 22.22° C | 81% | 1013.3 hPa | 0 mm | - | 142 W/m² | - |
| 1788188516 | 22.22° C | 80% | 1013 hPa | 0 mm | - | 286 W/m² | - |
| 1788188216 | 22.22° C | 82% | 1013 hPa | 0 mm | - | 373 W/m² | - |
| 1788187913 | 21.67° C | 83% | 1013 hPa | 0 mm | - | 334 W/m² | - |
| 1788187608 | 21.67° C | 85% | 1013 hPa | 0 mm | - | 378 W/m² | - |
| 1788187303 | 21.11° C | 85% | 1013 hPa | 0 mm | - | 246 W/m² | - |
| 1788187003 | 21.11° C | 85% | 1013 hPa | 0 mm | - | 186 W/m² | - |
| 1788186698 | 21.11° C | 86% | 1012.7 hPa | 0 mm | - | 208 W/m² | - |
| 1788186395 | 21.11° C | 86% | 1013 hPa | 0 mm | - | 146 W/m² | - |
* Rain latest hour (hover to see other rain measurements)
** Current wind speed in m/s (hover to see current wind gust speed)